Flag for U.S.A. Weather past 2 weeks in Birmingham, Alabama, U.S.A.

Now
67 °F

Passing clouds.


Feels Like: 67 °F
Forecast: 69 / 81 °F
Wind: 8 mph from Southeast

Location: Birmingham International Airport

Current Time: May 26, 2015 at 1:24:18 AM

Latest Report: May 26, 2015 at 12:53 AM


Visibility: 10 mi

Pressure: 30.14 "Hg

Humidity: 93%

Dew point: 65 °F

Location of BirminghamLocation

Historic Weather in Birmingham — Graph

°F

Birmingham temperature yesterday

Maximum temperature yesterday: 78 °F (at 11:53 AM)
Minimum temperature yesterday: 68 °F (at 9:53 PM)
Average temperature yesterday: 72 °F

Past Weeks' High & Low Weather Summary

 TemperatureHumidityPressure
High88 °F (May 11, 12:53 PM)97% (May 17, 6:53 AM)30.33 "Hg (May 17, 6:53 AM)
Low49 °F (May 22, 2:53 AM)21% (May 14, 2:53 PM)29.91 "Hg (May 20, 5:53 PM)
Average73 °F69%30.15 "Hg
* Reported May 10 11:53 PM — May 25 11:53 PM, Birmingham, Weather by CustomWeather, © 2015

Note: Actual official high and low records may vary slightly from our data, if they occured in-between our weather recording intervals... More about our weather records

Advertising

Birmingham weather history for previous 24 hours

 ConditionsComfort  
Time TempWeatherWind HumidityBarometerVisibility
11:53 PM
Mon, May 25
68 °FPassing clouds.3 mph93%30.16 "Hg10 mi
10:53 PM68 °FPassing clouds.No wind90%30.16 "Hg10 mi
9:53 PM68 °FPassing clouds.3 mph90%30.14 "Hg10 mi
8:53 PM69 °FPassing clouds.No wind87%30.10 "Hg10 mi
7:53 PM69 °FOvercast.No wind90%30.11 "Hg10 mi
6:53 PM70 °FMore clouds than sun.5 mph90%30.12 "Hg10 mi
5:53 PM70 °FPartly sunny.9 mph90%30.14 "Hg10 mi
4:53 PM73 °FBroken clouds.7 mph90%30.16 "Hg10 mi
3:53 PM75 °FOvercast.6 mph90%30.17 "Hg10 mi
2:53 PM75 °FLight rain. Overcast.3 mph88%30.16 "Hg8 mi
1:53 PM77 °FLight rain. Mostly cloudy.6 mph79%30.18 "Hg8 mi
12:53 PM78 °FOvercast.10 mph74%30.18 "Hg10 mi
11:53 AM78 °FMostly cloudy.10 mph74%30.18 "Hg10 mi
10:53 AM75 °FOvercast.6 mph79%30.19 "Hg10 mi
9:53 AM74 °FOvercast.9 mph79%30.19 "Hg10 mi
8:53 AM74 °FOvercast.13 mph74%30.18 "Hg10 mi
7:53 AM71 °FOvercast.10 mph78%30.19 "Hg10 mi
6:53 AM71 °FPartly sunny.8 mph76%30.17 "Hg10 mi
5:53 AM71 °FPassing clouds.12 mph73%30.16 "Hg10 mi
4:53 AM72 °FPassing clouds.12 mph68%30.15 "Hg10 mi
3:53 AM72 °FPassing clouds.9 mph68%30.14 "Hg10 mi
2:53 AM73 °FPassing clouds.15 mph66%30.14 "Hg10 mi
1:53 AM73 °FPassing clouds.15 mph69%30.14 "Hg10 mi
Weather by CustomWeather, © 2015

See weather overviewHow to use our weather pages